Regional Weather Roundup
Issued by NWS Kansas City/Pleasant Hill, MO

Home | Current Version | Previous Version | Graphics & Text | Print | Product List | Glossary Off
Versions: 1 2 3 4 5 6 7 8 9 10 11 12 13 14 15 16 17 18 19 20 21 22 23 24 25 26 27 28 29 30 31 32 33 34 35 36 37 38 39 40 41 42 43 44 45 46 47 48 49 50

000
ASUS43 KEAX 180110
RWREAX

WEATHER ROUNDUP FOR EASTERN KANSAS AND NORTHWEST MISSOURI
NATIONAL WEATHER SERVICE KANSAS CITY/PLEASANT HILL MO
800 PM CDT WED SEP 17 2014

KSZ040-057-103>105-MOZ028-029-037-043-180200-
...KANSAS CITY METROPOLITAN AREA...

CITY           SKY/WX    TMP DP  RH WIND       PRES   REMARKS
K.C. INTL      PTCLDY    69  64  84 E7        29.91R
K.C. DOWNTOWN  CLEAR     69  65  86 E5        29.90R
LEES SUMMIT    CLOUDY    69  66  90 E8        29.92R
OLATHE - IXD   MOCLDY    69  65  86 E6        29.91S
OLATHE - OJC   PTCLDY    68  64  87 E3        29.90S
LAWRENCE       CLEAR     67  63  87 E6        29.90R

$$

MOZ001>008-011>017-020>025-030>033-038>040-044>046-053-054-180200-
...NORTHERN AND CENTRAL MISSOURI...

CITY           SKY/WX    TMP DP  RH WIND       PRES   REMARKS
ST. JOSEPH     MOCLDY    69  64  84 E6        29.90R
MOSBY          CLEAR     66  64  94 CALM      29.91R
WHITEMAN AFB   CLOUDY    69  66  93 E5        29.92R
CLINTON        CLOUDY    72  70  94 NE6       29.91R
SEDALIA        CLOUDY    68  65  90 E8        29.93S
WARSAW         NOT AVBL
MARSHALL       CLEAR     66  66 100 E3        29.94R
CHILLICOTHE      N/A     71  64  78 NE6       29.94R
KIRKSVILLE     CLOUDY    65  60  84 E6        29.97R

$$

MOZ041-047>049-056>058-063>065-088>090-097-180200-
...EASTERN AND SOUTHERN MISSOURI...

CITY           SKY/WX    TMP DP  RH WIND       PRES   REMARKS
ST. LOUIS INTL CLOUDY    63  56  78 E7        29.97R
SPIRIT OF STL  CLOUDY    62  60  93 E5        29.95S
COLUMBIA       FOG       62  61  96 NE7       29.95R VSB 1
JEFFERSON CITY CLOUDY    65  62  90 NE3       29.93R
MEXICO         CLOUDY   N/A N/A N/A E5        29.96R FOG
HANNIBAL       CLOUDY    64  57  77 SE5       29.98R
ROLLA          FOG       63  61  93 SE7       29.93R VSB 1/2
LEBANON        CLOUDY    70  66  88 E3        29.93R
OSAGE BEACH    CLOUDY    70  64  83 E6        29.92R
SPRINGFIELD    CLEAR     66  63  90 E3        29.90R
BRANSON        MOCLDY    64  64 100 CALM      29.92S
NEVADA         PTCLDY    70  68  94 E6        29.89F
JOPLIN         PTCLDY    69  63  81 CALM      29.87S
WEST PLAINS    PTCLDY    63  60  90 CALM      29.94R

$$

IAZ060-094-KSZ022-034>040-054-083-096-NEZ052-066-093-180200-
...KANSAS...SOUTHEAST NEBRASKA AND IOWA...

CITY           SKY/WX    TMP DP  RH WIND       PRES   REMARKS
TOPEKA         CLEAR     70  67  90 E6        29.89S
MANHATTAN      CLEAR     72  67  84 E6        29.87S
EMPORIA        CLEAR     72  67  84 E9        29.87R
CHANUTE        PTCLDY    78  72  81 E10       29.86R
WICHITA        PTCLDY    86  59  39 SE7       29.80R
OMAHA          PTCLDY    72  62  71 E6        29.91R
LINCOLN        CLEAR     74  60  61 E7        29.91S
FALLS CITY     CLEAR     72  64  76 CALM      29.90R
LAMONI         CLEAR     66  60  81 E6        29.94R
DES MOINES     PTCLDY    70  56  61 E5        29.94R

$$



USA.gov is the U.S. government's official web portal to all federal, state and local government web resources and services.